Location: Plainartige
(45.6866°N, 1.7993°E)
Time: 06:15:37
(UTC+00:00)

NOAA 19 - Pass Details

Date: 03 July 2022
Orbit: 840 x 861 km, 99.1° (Epoch: 09 August)

Event Time Altitude Azimuth Distance (km) Brightness Sun altitude
Rises 20:34:04 0° 214° (SW) 3,417 8.3 -7.4°
Reaches altitude 10° 20:37:33 10° 237° (WSW) 2,483 7.8 -7.8°
Maximum altitude 20:40:37 15° 271° (W) 2,143 8.0 -8.2°
Drops below altitude 10° 20:43:42 10° 305° (NW) 2,485 9.2 -8.6°
Sets 20:47:12 0° 328° (NNW) 3,422 10.3 -9.0°
